This is the latest recevied weather packets stored in our database for station/object EA7RX-4. If no packets are shown the sender has not sent any weather packets the latest 10 day(s).
| Time | Temp. | Humidity | Pressure | Rain* | Wind** | Luminosity | Snow |
|---|---|---|---|---|---|---|---|
| 1788160203 | 69° F | 38% | 764.3 mmHg | 0 in | - | 154 W/m² | - |
| 1788159603 | 69° F | 37% | 764.4 mmHg | 0 in | - | 125 W/m² | - |
| 1788159003 | 69° F | 38% | 764.2 mmHg | 0 in | - | 98 W/m² | - |
| 1788158403 | 69° F | 38% | 764.4 mmHg | 0 in | - | 73 W/m² | - |
| 1788157803 | 69° F | 38% | 764.3 mmHg | 0 in | - | 52 W/m² | - |
| 1788157203 | 68° F | 38% | 764.4 mmHg | 0 in | - | 35 W/m² | - |
| 1788156603 | 67° F | 40% | 764.2 mmHg | 0 in | - | 26 W/m² | - |
| 1788156003 | 67° F | 41% | 764.2 mmHg | 0 in | - | 18 W/m² | - |
| 1788155403 | 67° F | 41% | 764.1 mmHg | 0 in | - | 10 W/m² | - |
| 1788154803 | 67° F | 42% | 764 mmHg | 0 in | - | 4 W/m² | - |
| 1788154203 | 67° F | 42% | 764.2 mmHg | 0 in | - | 1 W/m² | - |
| 1788153603 | 67° F | 42% | 763.9 mmHg | 0 in | - | 0 W/m² | - |
| 1788153003 | 67° F | 43% | 764 mmHg | 0 in | - | 0 W/m² | - |
| 1788152403 | 67° F | 43% | 764.1 mmHg | 0 in | - | 0 W/m² | - |
| 1788151803 | 67° F | 43% | 763.8 mmHg | 0 in | - | 0 W/m² | - |
| 1788151203 | 67° F | 43% | 763.8 mmHg | 0 in | - | 0 W/m² | - |
| 1788150603 | 67° F | 43% | 763.7 mmHg | 0 in | - | 0 W/m² | - |
| 1788150003 | 67° F | 44% | 763.8 mmHg | 0 in | - | 0 W/m² | - |
| 1788149403 | 67° F | 43% | 763.9 mmHg | 0 in | - | 0 W/m² | - |
| 1788148803 | 68° F | 43% | 763.9 mmHg | 0 in | - | 0 W/m² | - |
| 1788148203 | 68° F | 42% | 764 mmHg | 0 in | - | 0 W/m² | - |
| 1788147603 | 68° F | 44% | 763.8 mmHg | 0 in | - | 0 W/m² | - |
| 1788147003 | 68° F | 45% | 763.8 mmHg | 0 in | - | 0 W/m² | - |
| 1788146403 | 69° F | 44% | 763.8 mmHg | 0 in | - | 0 W/m² | - |
| 1788145803 | 68° F | 46% | 764 mmHg | 0 in | - | 0 W/m² | - |
* Rain latest hour (hover to see other rain measurements)
** Current wind speed in m/s (hover to see current wind gust speed)